Location: Friaudour
(46.0460°N, 1.2873°E)
Time: 10:11:27
(UTC+00:00)

Cosmos 1666 Rocket - Pass Details

Date: 14 July 2020
Orbit: 603 x 634 km, 82.5° (Epoch: 05 August)

Event Time Altitude Azimuth Distance (km) Brightness Sun altitude
Exits shadow 00:23:49 64° 226° (SW) 683 3.5 -22.1°
Maximum altitude 00:24:21 74° 279° (W) 644 3.5 -22.1°
Drops below altitude 10° 00:28:44 10° 6° (N) 1,977 7.3 -22.0°
Sets 00:30:57 0° 8° (N) 2,882 8.5 -22.0°
